TimePST,TemperatureF,Dew PointF,Humidity,Sea Level PressureIn,VisibilityMPH,Wind Direction,Wind SpeedMPH,Gust SpeedMPH,PrecipitationIn,Events,Conditions,WindDirDegrees,DateUTC
12:53 AM,42.1,34.0,73,30.04,10.0,NW,9.2,-,N/A,,Clear,320,2013-02-21 08:53:00
1:53 AM,43.0,33.1,68,30.04,10.0,NNE,10.4,-,N/A,,Clear,20,2013-02-21 09:53:00
3:53 AM,39.9,32.0,73,30.04,10.0,NE,5.8,-,N/A,,Clear,50,2013-02-21 11:53:00
4:53 AM,39.9,33.1,77,30.05,10.0,North,6.9,-,N/A,,Clear,360,2013-02-21 12:53:00
5:53 AM,41.0,33.1,73,30.07,10.0,North,10.4,-,N/A,,Clear,350,2013-02-21 13:53:00
6:53 AM,41.0,33.1,73,30.08,10.0,North,9.2,-,N/A,,Clear,350,2013-02-21 14:53:00
7:53 AM,45.0,34.0,65,30.11,10.0,North,8.1,-,N/A,,Clear,10,2013-02-21 15:53:00
8:53 AM,48.0,35.1,61,30.13,10.0,North,11.5,-,N/A,,Clear,360,2013-02-21 16:53:00
9:53 AM,52.0,35.1,53,30.13,10.0,NNW,11.5,-,N/A,,Partly Cloudy,330,2013-02-21 17:53:00
10:53 AM,55.9,32.0,40,30.14,10.0,NNW,6.9,-,N/A,,Clear,330,2013-02-21 18:53:00
11:53 AM,59.0,30.0,33,30.13,10.0,NW,4.6,-,N/A,,Scattered Clouds,310,2013-02-21 19:53:00
12:53 PM,61.0,28.9,30,30.11,10.0,NNW,8.1,-,N/A,,Scattered Clouds,340,2013-02-21 20:53:00
1:53 PM,62.1,27.0,26,30.09,10.0,North,5.8,-,N/A,,Scattered Clouds,350,2013-02-21 21:53:00
2:53 PM,62.1,24.1,23,30.08,10.0,Calm,Calm,-,N/A,,Scattered Clouds,0,2013-02-21 22:53:00
3:53 PM,63.0,27.0,26,30.06,10.0,North,4.6,-,N/A,,Scattered Clouds,350,2013-02-21 23:53:00
4:53 PM,60.1,34.0,38,30.08,10.0,WSW,5.8,-,N/A,,Scattered Clouds,250,2013-02-22 00:53:00
5:53 PM,57.0,36.0,45,30.08,10.0,Calm,Calm,-,N/A,,Scattered Clouds,0,2013-02-22 01:53:00
6:53 PM,51.1,36.0,56,30.11,10.0,Calm,Calm,-,N/A,,Scattered Clouds,0,2013-02-22 02:53:00
7:53 PM,48.9,37.0,64,30.12,10.0,Calm,Calm,-,N/A,,Scattered Clouds,0,2013-02-22 03:53:00
8:53 PM,46.0,37.0,71,30.13,10.0,Calm,Calm,-,N/A,,Clear,0,2013-02-22 04:53:00
9:53 PM,46.0,36.0,68,30.14,10.0,Calm,Calm,-,N/A,,Clear,0,2013-02-22 05:53:00
10:53 PM,46.0,35.1,66,30.14,10.0,NNE,5.8,-,N/A,,Clear,30,2013-02-22 06:53:00
11:53 PM,43.0,35.1,74,30.15,10.0,Calm,Calm,-,N/A,,Clear,0,2013-02-22 07:53:00